RH
78 81 82 95 98 97 94 81 89 76 71 87 81 80 75 68 63 64 65 65 66 73 72 73 75 77 76 68 63 74 82 94 86 97 100 100 100 100 100 100 98 99 100 100
75 62 78 88 84 92 99 97 88 90 94 87 83 70 79 77 70 68 68 68 66 67 71 73 76 78 80 81 76 79 84 99 96 100 100 100 100 100 100 100 100 99 100 100
84 66 56 80 93 87 93 94 95 95 94 92 92 83 88 92 78 70 70 70 71 68 70 71 75 79 87 90 86 87 88 96 98 100 100 94 96 100 100 100 100 100 100 100
93 82 94 94 89 78 88 91 89 87 89 91 87 89 94 93 93 84 72 73 71 72 72 75 80 85 100 91 95 94 96 99 99 98 99 100 100 100 100 100 99 99 100 100
100 86 92 93 91 89 89 92 90 89 83 75 71 68 95 91 80 70 75 68 72 75 77 74 76 89 100 98 92 85 85 94 100 100 100 100 100 100 100 100 100 100 100 100
92 95 80 88 87 90 94 94 93 84 82 90 72 81 82 79 73 67 67 74 74 80 76 67 68 87 100 97 93 91 89 91 99 100 100 100 100 100 100 100 100 100 100 100
87 95 91 88 79 84 96 94 86 90 90 90 92 92 84 67 67 69 72 70 76 85 80 66 66 78 98 99 97 94 91 92 97 100 100 100 100 100 100 100 100 100 100 100
87 96 97 89 59 83 94 89 89 89 87 88 87 81 74 66 68 72 77 81 83 90 89 73 60 68 83 91 94 94 93 95 97 100 100 100 100 100 100 100 100 100 100 100
100 98 95 94 95 94 94 92 86 87 84 82 78 74 70 72 72 76 79 81 87 91 96 82 79 84 79 79 91 97 99 100 100 100 100 100 100 100 100 100 100 100 100 100
94 91 93 91 81 84 88 93 88 84 89 83 86 78 78 78 78 81 84 86 92 92 93 98 95 100 91 84 87 95 99 100 100 100 100 100 100 100 100 100 100 100 100 100
97 90 92 88 91 95 88 77 80 78 80 83 85 81 84 84 85 89 88 90 96 97 97 98 99 100 100 100 95 95 99 100 100 100 100 100 100 99 100 100 100 100 100 99
98 96 97 92 92 94 94 93 91 92 86 86 89 90 91 89 90 94 94 97 97 96 100 100 98 100 100 99 100 99 98 99 100 100 100 99 98 99 99 98 99 98 99 97
97 96 96 94 95 92 97 97 96 94 96 95 94 97 96 96 98 94 98 98 98 100 100 99 99 98 97 100 100 100 98 98 99 99 99 99 99 99 99 99 98 98 98 98
96 97 89 93 98 95 94 94 90 85 89 92 96 96 98 99 94 96 98 100 97 97 96 96 97 98 99 100 99 98 98 100 98 98 98 98 98 99 99 98 98 100 95 88
94 95 96 96 89 90 87 91 92 92 93 92 94 97 98 95 96 99 97 96 95 96 96 96 96 97 97 98 97 97 97 99 98 98 98 98 98 99 99 99 98 99 98 96
94 90 90 93 94 92 92 92 91 92 90 93 95 95 98 97 96 95 95 96 98 96 97 97 96 98 100 97 98 98 98 99 98 97 98 98 98 98 98 98 98 99 99 99
94 88 87 87 91 92 95 95 93 94 95 94 96 97 97 96 94 96 94 95 96 97 96 97 97 97 100 98 96 98 98 99 99 97 97 97 97 97 98 98 98 98 98 97
97 93 89 93 93 88 86 89 89 91 95 97 97 96 95 96 96 97 98 95 93 90 94 97 97 96 97 97 98 97 96 96 96 96 97 97 97 97 96 96 97 97 97 98
89 87 84 84 89 88 90 92 92 95 95 97 95 96 98 98 98 98 96 95 96 96 96 95 98 96 96 98 97 97 96 97 97 97 97 98 97 96 96 96 96 96 96 98
80 80 82 82 86 91 91 94 98 98 97 98 97 92 93 96 99 98 95 97 97 97 96 96 96 96 95 97 97 96 96 96 96 96 96 96 96 96 96 96 96 96 97 96
93 93 94 94 91 93 96 97 99 99 98 99 99 99 98 97 97 98 95 94 93 94 97 95 96 95 97 95 96 96 96 96 96 97 96 96 97 96 96 96 96 96 96 96
96 95 97 98 91 91 92 94 95 97 96 97 99 99 100 96 97 96 90 96 96 100 96 94 95 96 97 95 95 96 96 96 96 96 96 96 96 96 96 96 96 96 96 96
94 95 97 100 95 92 89 93 90 93 93 96 98 100 100 100 99 98 90 88 95 97 94 95 96 98 95 96 96 96 96 96 96 96 96 96 95 96 96 96 96 96 96 96
95 95 97 95 86 90 97 94 92 90 93 89 82 89 99 100 93 96 98 100 100 97 97 96 97 98 95 96 96 96 96 95 94 96 96 96 95 95 96 96 96 96 96 95
97 94 97 90 89 96 95 96 89 84 93 89 84 72 90 97 100 99 96 98 100 98 96 98 98 96 96 96 96 96 96 96 96 96 96 96 96 95 96 96 95 95 96 93
96 96 97 88 95 97 97 98 98 92 97 99 89 78 69 87 95 93 97 100 96 98 96 97 98 96 95 96 96 96 95 95 96 95 95 96 94 95 96 95 97 96 96 95
93 90 94 93 96 98 98 90 98 94 81 98 84 76 77 68 92 93 93 94 96 96 96 96 96 96 97 97 96 96 96 97 97 96 97 94 97 97 96 96 97 96 96 98
Wind_Speed
12 9 6 7 5 10 18 17 10 7 10 4 9 10 11 12 13 14 15 16 16 15 14 20 21 23 26 28 24 15 10 10 14 17 19 23 24 27 28 29 30 31 33 36
11 5 6 5 6 13 8 5 12 6 5 10 8 10 12 13 14 15 17 17 15 16 18 22 25 26 25 26 27 18 14 10 12 15 16 18 21 23 24 26 29 32 36 38
6 9 10 5 7 3 5 12 7 2 6 10 8 11 10 11 14 13 14 15 15 15 16 20 22 24 27 27 22 15 14 11 10 12 14 16 20 23 24 28 31 35 38 40
3 2 4 5 10 17 18 13 14 12 13 11 10 10 5 10 11 14 14 13 13 18 23 26 26 25 24 15 11 11 12 11 10 12 15 18 21 24 26 30 33 35 35 36
3 5 6 2 6 5 5 7 13 13 14 13 18 8 9 15 15 13 12 15 16 21 23 26 27 28 18 9 7 9 11 13 14 13 16 18 21 24 26 27 26 27 31 35
3 3 6 5 12 8 5 2 11 13 14 16 16 6 4 18 17 18 22 21 23 26 23 23 28 24 17 13 12 14 14 13 12 13 16 18 20 23 24 24 25 28 28 31
6 2 4 11 16 6 5 2 11 9 10 10 8 7 14 15 16 21 23 22 23 24 21 21 26 21 14 15 13 13 13 12 9 9 12 16 19 21 24 25 25 25 28 28
3 3 2 16 4 5 4 5 8 8 10 11 11 14 14 15 15 19 21 23 21 20 22 24 22 19 12 10 12 11 10 7 6 8 11 15 20 22 25 28 29 28 31 28
3 3 4 5 7 6 7 6 7 8 9 11 12 14 16 15 15 17 21 23 24 20 20 20 21 18 13 10 8 7 6 5 6 8 10 14 20 24 25 25 26 25 26 28
1 3 3 7 6 8 7 7 9 9 8 10 11 11 13 13 14 17 20 21 22 19 18 19 23 18 11 10 7 5 4 5 7 10 11 14 17 20 22 22 22 23 25 26
2 4 4 4 8 9 10 10 11 10 9 9 10 12 11 11 13 18 20 21 22 19 17 19 22 16 14 11 9 4 3 5 8 11 14 16 16 16 18 19 25 28 27 31
2 3 3 6 5 7 8 10 11 10 12 15 13 11 16 13 18 18 19 22 21 21 20 20 19 15 15 13 7 6 5 7 10 13 16 18 18 17 14 18 18 23 31 34
3 4 5 7 6 8 3 5 9 8 11 8 16 16 17 15 19 22 21 22 23 23 21 18 16 14 12 10 5 5 7 10 10 13 16 18 19 21 21 20 23 27 30 28
3 5 4 4 3 14 14 14 15 14 13 14 13 13 15 15 17 21 21 24 23 19 19 17 14 13 11 8 4 3 8 8 13 15 15 16 18 19 21 23 23 25 23 25
7 5 4 7 10 10 16 13 8 8 14 16 20 17 18 18 18 20 23 23 21 19 20 17 15 12 7 3 2 7 9 12 16 17 19 19 20 22 22 24 25 27 28 27
6 4 5 4 5 6 9 8 8 9 14 15 16 18 19 19 18 19 20 20 19 18 22 21 19 14 5 1 4 7 8 12 17 20 21 21 22 22 22 23 22 21 22 24
4 6 6 7 6 8 7 9 11 12 14 14 16 18 17 17 15 17 20 18 17 18 21 23 21 16 9 8 6 7 8 11 13 17 18 18 18 18 19 19 19 20 22 25
7 6 7 8 6 7 8 11 13 14 13 15 16 15 15 15 14 16 17 17 19 19 22 21 20 17 18 12 9 9 9 10 14 15 15 16 16 18 19 19 20 22 22 18
8 9 10 10 9 10 10 11 13 14 14 15 16 15 15 15 17 17 17 15 17 17 21 20 17 17 17 14 10 9 9 10 12 13 14 15 16 17 18 19 19 20 18 18
9 10 10 10 10 10 11 12 14 14 15 15 15 14 15 16 17 16 16 13 17 19 17 16 14 14 14 12 10 9 9 11 11 12 14 15 16 16 17 19 19 16 18 20
9 10 9 10 11 11 10 12 13 13 15 14 14 15 16 16 17 17 13 12 20 18 17 16 13 14 17 7 7 8 8 9 9 12 13 14 14 16 16 18 18 16 18 18
11 11 11 11 12 12 13 13 13 13 15 16 15 17 17 16 18 17 15 13 22 17 14 16 12 19 12 6 5 5 6 8 10 12 13 13 14 14 14 15 16 15 16 17
10 10 9 10 11 11 11 14 15 13 14 15 16 16 15 15 15 15 16 23 21 22 15 12 14 11 8 6 3 4 7 10 10 10 11 12 11 11 12 13 13 14 15 16
9 9 9 9 10 10 13 16 16 13 14 15 16 15 16 16 18 16 19 17 18 18 15 13 15 13 5 6 5 6 8 9 8 8 10 10 11 10 10 11 12 13 14 13
10 10 6 8 10 11 12 14 16 16 16 16 18 17 15 14 12 20 20 19 17 16 15 12 10 9 9 6 7 6 5 5 6 7 7 8 11 10 10 10 11 11 12 11
10 10 4 7 7 11 13 11 14 16 13 15 17 19 17 15 16 19 20 17 18 16 15 13 11 8 6 7 6 5 4 3 4 5 5 10 9 10 11 10 10 11 10 9
10 10 5 9 11 13 12 13 12 16 17 17 15 18 18 17 15 16 19 20 19 17 17 16 13 10 5 4 3 3 4 5 7 8 10 10 10 10 9 9 10 9 7 7
Wind_Direction
313 292 278 269 297 236 215 222 202 197 179 76 33 34 20 20 21 29 18 9 1 356 353 350 352 349 345 343 344 334 317 270 255 251 239 232 231 229 226 215 209 203 187 185
312 321 247 236 15 347 277 311 231 171 102 1 14 17 22 16 20 19 10 357 350 345 348 347 342 336 331 329 333 330 322 304 269 249 242 230 230 230 220 205 193 187 182 185
275 335 320 236 19 9 119 33 337 260 40 4 357 2 9 15 8 8 357 351 344 329 334 332 329 323 318 318 325 322 319 315 282 252 233 239 236 224 205 194 190 183 181 181
259 355 272 60 28 72 86 39 23 21 0 359 338 318 282 34 5 356 341 338 333 332 330 326 325 328 335 343 340 333 325 308 279 257 241 226 216 208 200 195 190 184 180 179
239 186 117 46 39 351 355 65 13 5 351 352 343 313 154 11 352 338 333 324 327 318 322 324 329 338 339 359 8 345 331 311 285 253 233 219 209 201 198 188 180 178 176 175
225 213 218 19 332 318 313 92 2 1 357 349 350 16 352 340 337 333 328 333 329 332 326 331 331 341 335 337 337 339 334 314 291 260 231 211 202 192 186 182 174 174 168 167
286 33 84 343 322 295 213 6 344 351 358 342 341 326 316 327 329 328 323 329 330 328 326 324 327 337 338 336 338 332 330 319 295 257 223 204 189 185 179 169 159 154 150 151
344 34 99 350 1 56 336 337 349 346 348 341 334 329 330 329 329 326 328 329 333 330 324 326 334 335 335 334 329 327 319 304 277 237 215 195 186 172 167 158 146 139 135 130
42 91 75 8 62 0 344 344 352 344 347 345 341 337 332 329 326 329 329 329 331 330 325 333 344 349 336 336 339 328 303 263 230 223 209 195 183 166 154 152 147 142 137 132
28 351 1 48 32 14 355 348 338 347 345 343 340 336 333 331 328 329 325 329 331 332 334 336 349 349 355 339 340 325 278 239 209 201 190 182 175 165 159 158 154 148 143 136
314 335 22 360 7 349 345 350 349 349 350 349 342 342 337 329 328 322 330 337 334 335 339 338 343 340 337 335 324 305 251 222 191 174 170 167 166 169 167 168 165 155 150 146
251 249 211 267 298 331 335 339 336 344 343 346 351 340 339 330 330 333 341 339 339 337 341 344 342 333 335 331 310 263 188 179 174 167 159 150 137 116 151 153 151 150 147 146
279 266 226 260 275 333 285 284 314 341 324 326 334 338 339 333 333 343 346 346 342 337 345 351 351 344 339 323 293 217 189 170 162 158 149 141 137 131 123 122 136 144 147 147
299 321 352 0 297 322 332 327 341 344 345 340 336 340 340 336 341 345 349 345 349 351 2 4 8 359 339 321 300 190 156 155 150 145 140 141 142 138 135 133 129 131 133 137
337 328 264 305 329 330 345 338 341 341 341 345 348 346 346 345 342 342 357 360 0 359 13 14 13 7 335 292 171 143 151 149 141 136 130 125 123 123 124 122 121 126 132 136
310 315 334 329 321 328 336 341 346 341 342 341 340 340 337 339 337 345 2 4 356 351 358 7 12 9 347 358 108 145 144 130 125 123 121 117 114 111 112 119 124 127 131 135
334 353 348 339 346 341 332 342 340 335 332 336 333 332 336 337 342 347 356 7 10 6 7 13 11 20 23 52 59 80 126 121 132 137 135 136 137 136 138 140 138 133 135 144
329 335 336 327 343 338 338 343 342 339 336 333 333 340 343 345 342 337 346 3 9 12 12 11 14 24 32 41 75 94 104 111 120 111 119 121 121 128 125 123 127 131 139 142
351 350 346 344 353 336 337 343 341 336 338 340 340 340 340 342 343 343 354 360 357 354 0 4 7 22 29 29 51 79 100 115 124 128 127 126 130 140 140 140 143 146 152 146
350 349 340 347 352 348 342 344 341 340 343 344 345 350 349 347 347 350 353 348 355 347 355 358 5 13 19 23 36 64 86 105 113 118 125 132 135 138 141 145 146 150 144 145
343 346 347 345 344 349 348 351 350 346 346 352 353 348 343 343 350 352 348 345 350 348 347 352 353 354 344 3 39 61 89 100 115 124 124 128 129 136 141 149 155 150 147 147
342 344 344 346 351 350 357 356 357 356 357 356 355 354 349 349 349 349 349 339 345 336 349 344 348 355 26 55 50 69 99 102 123 127 130 134 135 140 145 151 155 157 155 155
339 341 340 348 347 344 360 8 4 360 0 2 358 353 347 343 345 342 344 347 344 350 352 351 341 329 8 39 104 97 111 105 105 126 137 138 137 142 148 154 156 157 157 158
337 341 339 346 352 360 359 3 3 5 7 9 7 3 355 346 345 357 350 347 347 351 353 345 359 20 16 16 129 110 117 106 100 119 136 144 143 138 147 152 156 158 155 158
334 337 346 348 352 349 351 356 0 6 4 6 7 6 5 6 353 348 354 359 354 353 357 3 2 2 29 72 89 96 95 113 127 133 132 140 150 143 152 149 151 155 159 159
337 323 342 351 347 351 354 355 355 354 350 350 357 3 3 2 4 359 6 4 9 10 19 15 13 13 20 51 76 78 82 95 108 126 136 141 140 146 146 145 151 152 155 161
359 359 26 8 2 355 353 355 351 343 345 342 357 0 359 359 0 2 8 13 16 16 17 21 25 26 33 39 46 59 80 99 114 122 126 125 129 134 138 145 149 157 170 182